Regional Weather Roundup
Issued by NWS Newport/Morehead, NC

Current Version | Previous Version | Text Only | Print | Product List | Glossary On
Versions: 1 2 3 4 5 6 7 8 9 10 11 12 13 14 15 16 17 18 19 20 21 22 23 24 25 26 27 28 29 30 31 32 33 34 35 36 37 38 39 40 41 42 43 44 45 46 47 48 49 50
000 ASUS42 KMHX 180222 RWRMHX WEATHER ROUNDUP FOR EASTERN NORTH CAROLINA NATIONAL WEATHER SERVICE NEWPORT/MOREHEAD CITY NC 1000 PM EDT WED SEP 17 2014 NOTE: "FAIR" INDICATES FEW OR NO CLOUDS BELOW 12,000 FEET WITH NO SIGNIFICANT WEATHER AND/OR OBSTRUCTIONS TO VISIBILITY NCZ015>017-031-032-045>047-102-103-180300- NORTH COAST CITY SKY/WX TMP DP RH WIND PRES REMARKS EDENTON PTCLDY 66 62 87 N5 29.96S ELIZABETH CITY CLEAR 67 60 78 NE8 29.96S KITTY HAWK PTCLDY 71 60 68 E8 29.94S MANTEO PTCLDY 70 61 72 NE12 29.95S $$ NCZ045>047-081-094-103-104-180300- CENTRAL COAST CITY SKY/WX TMP DP RH WIND PRES REMARKS FRISCO PTCLDY 70 64 81 NE9G18 29.92S SWANQUARTER N/A 70 N/A N/A NE7G13 29.88S $$ NCZ095-097-098-100-101-180300- SOUTHERN COAST CITY SKY/WX TMP DP RH WIND PRES REMARKS BEAUFORT CLEAR 72 66 81 NE6 29.93R CEDAR ISLAND N/A 75 N/A N/A NE17G25 29.97S JACKSONVILLE PTCLDY 71 64 78 NE5 29.93R NEWPORT NOT AVBL PINEY ISLAND PTCLDY 76 65 68 NE16 29.92R WILMINGTON CLEAR 71 68 90 NE9 29.91S $$ NCZ011>013-027>030-043-044-078>080-089-090>093-098-180300- COASTAL PLAIN CITY SKY/WX TMP DP RH WIND PRES REMARKS AHOSKIE CLEAR 61 59 94 CALM 29.98R CLINTON PTCLDY 70 66 88 CALM 29.95R ELIZABETHTOWN CLOUDY 70 68 92 E3 29.93R GOLDSBORO MOCLDY 68 67 97 NE1 29.93S GREENVILLE MOCLDY 64 63 94 CALM 29.98R HAVELOCK PTCLDY 71 64 78 NE9 29.94R KENANSVILLE PTCLDY 68 65 89 CALM 29.95R KINSTON PTCLDY 68 63 85 NE5 29.96R NEW BERN PTCLDY 70 64 81 NE5 29.95R RICHLANDS CLEAR 66 63 88 N3 29.94R ROANOKE RAPIDS NOT AVBL ROCKY MOUNT CLOUDY 66 62 87 NE3 29.96R WASHINGTON CLEAR 65 62 89 NE5 29.96R WHITEVILLE MOCLDY 72 69 90 NE3 29.91S $$ AMZ130-135-150-152-154-156-158-170-250-252-270-ANZ085-086-088-633-658-670-180300- MARINE OBSERVATIONS STATION/POSITION TIME TEMP WIND PRES WAVE SWELL AIR SEA DIR/SP/G HT/PER HT/PER (UTC) (F) (DEG/KT/KT) (MB) (FT/S) (FT/S) CHESAPEAKE LIGHT 0200 70 70/ 15/ 16 1015.1 BUOY 44014 0200 72 77 40/ 14/ 17 1013.8 5/13 5/13 DUCK 0200 72 76 70/ 15/ 18 1013.5 2E DUCK 0200 N/A 5/13 3/13 OREGON INLET 0200 72 76 40/ 13/ 17 1013.7 BUOY 44095 0200 76 N/A 5/14 3/14 20E OREGON INLET NOT AVBL HATTERAS CG 0200 74 79 40/ 12/ 17 1013.6 DIAMOND BUOY 0200 75 30/ 16/ 19 1012.4 7/ 7 3/12 CAPE LOOKOUT 0200 76 50/ 20/ 21 1013.0 BEAUFORT LAB 0200 72 80 30/ 6/ 8 1012.9 30 SE NEW RIVER 0200 77 82 40/ 16/ 17 1012.8 4/13 3/13 5 SE WRIGHTSVILL 0200 74 81 60/ 16/ 19 N/A BUOY 41002 0143 78 82 10/ 8/ 10 1011.3 6/14 5/14 BUOY 41004 0200 81 83 10/ 4/ 6 1012.4 3/13 3/13 $$

USA.gov is the U.S. government's official web portal to all federal, state and local government web resources and services.